Location: Unspecified
(51.0950°N, 12.9690°E)
Time: 13:12:38
(UTC+00:00)

PCSat - Pass Details

Date: 22 April 2024
Orbit: 783 x 792 km, 67.1° (Epoch: 24 May)

Event Time Altitude Azimuth Distance (km) Brightness Sun altitude
Rises 19:08:16 0° 227° (SW) 3,271 13.0 -8.1°
Reaches altitude 10° 19:10:42 10° 231° (SW) 2,348 12.3 -8.4°
Maximum altitude 19:16:02 61° 312° (NW) 895 10.2 -9.1°
Drops below altitude 10° 19:21:25 10° 33° (NNE) 2,367 12.1 -9.8°
Sets 19:23:53 0° 37° (NE) 3,301 12.8 -10.2°
